View from above orbital plane
|
View from above satellite
|
Ground track
|
The orbit data is extracted from the following two-line orbital elements,
1 22676U 93036B 13142.82653983 .00000144 00000-0 61359-4 0 9468
2 22676 074.0443 019.3412 0018404 048.0431 312.2285 14.33427054 42332
| Epoch (UTC): | 22 May 2013 19:50:13 |
| Eccentricity: | 0.0018404 |
| inclination: | 74.0443° |
| perigee height: | 767 km |
| apogee height: | 793 km |
| right ascension of ascending node: | 19.3412° |
| argument of perigee: | 48.0431° |
| revolutions per day: | 14.33427054 |
| mean anomaly at epoch: | 312.2285° |
| orbit number at epoch: | 4233 |
The dashed part of the orbit path shows where the satellite is in the earth's shadow,
|
|